Florence, Italy

9:27 AM CEST on October 22, 2017 (GMT +0200)
Peretola

Weather History for LIRQ - August, 2013

Change the Weather History Date:

Friday, August 2, 2013

  Actual Average Record
Temperature  
Mean Temperature 80 °F -  
Max Temperature 98 °F 87 °F 104 °F (2017)
Min Temperature 62 °F 63 °F 62 °F (2010)
Cooling Degree Days 15    
Growing Degree Days 30 (Base 50)    
Moisture  
Dew Point 58 °F    
Average Humidity 46    
Maximum Humidity 77    
Minimum Humidity 24    
Precipitation  
Precipitation 0.00 in 0.10 in - ()
Sea Level Pressure  
Sea Level Pressure 30.03 in    
Wind  
Wind Speed 4 mph ()    
Max Wind Speed 12 mph    
Max Gust Speed -    
Averages and records for this station are not official NWS values.
T = Trace of Precipitation, MM = Missing Value Source: Averaged Metar Reports

Daily Weather History Graph

Daily Weather History Graph

Search for Another Location

Airport or City:

Trip Planner

Search our weather history database for the weather conditions in past years. The results will help you decide how hot, cold, wet, or windy it might be!

Date:

Astronomy

Aug. 02, 2013 Rise Set
Actual Time 6:04 AM CEST 8:37 PM CEST
Civil Twilight 5:32 AM CEST 9:09 PM CEST
Nautical Twilight 4:51 AM CEST 9:50 PM CEST
Astronomical Twilight 4:04 AM CEST 10:36 PM CEST
Moon 2:11 AM CEST (8/2) 5:23 PM CEST (8/2)
Length of Visible Light 15h 37m
Length of Day
14h 32m
Waning Crescent, 17% of the Moon is Illuminated
Aug 2
Waning Crescent
Aug 6
New
Aug 14
First Quarter
Aug 21
Full
Aug 28
Last Quarter

Hourly Weather History & Observations

Time (CEST) Temp. Heat Index Dew Point Humidity Pressure Visibility Wind Dir Wind Speed Gust Speed Precip Events Conditions
12:20 AM 77.0 °F - 55.4 °F 47% 30.04 in - SSW 6.9 mph - N/A   Clear
12:50 AM 75.2 °F - 57.2 °F 53% 30.04 in - SW 4.6 mph - N/A   Clear
1:20 AM 73.4 °F - 57.2 °F 57% 30.04 in - SSW 5.8 mph - N/A   Clear
1:50 AM 73.4 °F - 57.2 °F 57% 30.04 in - SSW 3.5 mph - N/A   Clear
2:20 AM 69.8 °F - 57.2 °F 64% 30.04 in - Variable 2.3 mph - N/A   Clear
2:50 AM 68.0 °F - 57.2 °F 68% 30.04 in - ESE 3.5 mph - N/A   Clear
3:20 AM 66.2 °F - 57.2 °F 73% 30.04 in - Variable 1.2 mph - N/A   Clear
3:50 AM 64.4 °F - 55.4 °F 73% 30.04 in - ESE 3.5 mph - N/A   Clear
4:20 AM 66.2 °F - 55.4 °F 68% 30.04 in - East 3.5 mph - N/A   Clear
4:50 AM 64.4 °F - 55.4 °F 73% 30.04 in - East 4.6 mph - N/A   Clear
5:20 AM 66.2 °F - 55.4 °F 68% 30.04 in - ESE 3.5 mph - N/A   Clear
5:50 AM 64.4 °F - 57.2 °F 77% 30.04 in - Variable 2.3 mph - N/A   Clear
6:20 AM 62.6 °F - 55.4 °F 77% 30.04 in - ESE 3.5 mph - N/A   Clear
6:50 AM 66.2 °F - 57.2 °F 73% 30.04 in - ESE 3.5 mph - N/A   Clear
7:20 AM 69.8 °F - 57.2 °F 64% 30.06 in - Variable 2.3 mph - N/A   Clear
7:50 AM 71.6 °F - 59.0 °F 64% 30.06 in - Variable 2.3 mph - N/A   Clear
8:20 AM 73.4 °F - 57.2 °F 57% 30.06 in - Variable 2.3 mph - N/A   Clear
8:50 AM 77.0 °F - 59.0 °F 54% 30.06 in - Variable 2.3 mph - N/A   Clear
9:20 AM 78.8 °F - 57.2 °F 47% 30.06 in - Variable 2.3 mph - N/A   Clear
9:50 AM 84.2 °F 83.8 °F 59.0 °F 42% 30.06 in - Variable 1.2 mph - N/A   Clear
10:20 AM 86.0 °F 85.4 °F 59.0 °F 40% 30.06 in - Variable 2.3 mph - N/A   Clear
10:50 AM 89.6 °F 89.5 °F 60.8 °F 38% 30.06 in - Variable 2.3 mph - N/A   Clear
11:20 AM 91.4 °F 89.9 °F 57.2 °F 31% 30.06 in - Variable 4.6 mph - N/A   Clear
11:50 AM 91.4 °F 89.9 °F 57.2 °F 31% 30.04 in - ENE 8.1 mph - N/A   Clear
12:20 PM 95.0 °F 93.7 °F 57.2 °F 28% 30.04 in - Variable 5.8 mph - N/A   Clear
12:50 PM 95.0 °F 93.7 °F 57.2 °F 28% 30.04 in - Variable 4.6 mph - N/A   Clear
1:20 PM 95.0 °F 93.7 °F 57.2 °F 28% 30.04 in - Variable 4.6 mph - N/A   Clear
1:50 PM 96.8 °F 96.2 °F 59.0 °F 28% 30.01 in - ESE 5.8 mph - N/A   Clear
2:20 PM 95.0 °F 94.4 °F 59.0 °F 30% 30.01 in - ESE 6.9 mph - N/A   Clear
2:50 PM 96.8 °F 95.8 °F 57.2 °F 27% 30.01 in - Variable 5.8 mph - N/A   Clear
3:20 PM 96.8 °F 95.8 °F 57.2 °F 27% 30.01 in - South 4.6 mph - N/A   Clear
3:50 PM 98.6 °F 98.5 °F 59.0 °F 27% 29.98 in - Variable 4.6 mph - N/A   Clear
4:20 PM 98.6 °F 97.2 °F 55.4 °F 24% 29.98 in - Variable 4.6 mph - N/A   Clear
4:50 PM 98.6 °F 97.2 °F 55.4 °F 24% 29.98 in - Variable 3.5 mph - N/A   Clear
5:20 PM 98.6 °F 97.2 °F 55.4 °F 24% 29.98 in - WSW 4.6 mph - N/A   Clear
5:50 PM 98.6 °F 97.2 °F 55.4 °F 24% 29.98 in - Variable 3.5 mph - N/A   Clear
6:20 PM 96.8 °F 95.8 °F 57.2 °F 27% 29.98 in - SSE 6.9 mph - N/A   Clear
6:50 PM 98.6 °F 97.6 °F 57.2 °F 25% 29.98 in - Variable 2.3 mph - N/A   Clear
7:20 PM 96.8 °F 96.2 °F 59.0 °F 28% 29.98 in - West 8.1 mph - N/A   Clear
7:50 PM 95.0 °F 94.4 °F 59.0 °F 30% 29.98 in - West 5.8 mph - N/A   Clear
8:20 PM 91.4 °F 90.7 °F 59.0 °F 34% 29.98 in - SW 10.4 mph - N/A   Clear
8:50 PM 87.8 °F 87.1 °F 59.0 °F 38% 30.01 in - SSW 11.5 mph - N/A   Clear
9:20 PM 86.0 °F 86.1 °F 60.8 °F 43% 30.01 in - Variable 3.5 mph - N/A   Clear
9:50 PM 84.2 °F 84.4 °F 60.8 °F 45% 30.04 in - Variable 2.3 mph - N/A   Clear
10:20 PM 82.4 °F 82.5 °F 59.0 °F 45% 30.04 in - South 3.5 mph - N/A   Clear
10:50 PM 82.4 °F 82.5 °F 59.0 °F 45% 30.04 in - Variable 2.3 mph - N/A   Clear
11:20 PM 78.8 °F - 62.6 °F 57% 30.04 in - East 4.6 mph - N/A   Clear
11:50 PM 77.0 °F - 62.6 °F 61% 30.04 in - East 3.5 mph - N/A   Clear